GSAT0215 (GALILEO 19)

Last updated on Wed Oct 29 2025 00:02:34 GMT+0000 (Coordinated Universal Time)

1 43055U 17079A 25300.14242723 .00000008 00000+0 00000+0 0 9992 2 43055 55.1482 227.9200 0002123 292.6716 67.3267 1.70473787 49016
UTC large
Height (km)
Speed (km/s)
/
Latitude / Longitude
Inclination (degrees)
Orbital Period (minutes)
Azimuth
Elevation
Range (km)
Doppler Factor

Next 0 passes for location: London (51.5072 / 0.1276)

Sorry there are no passes over London.